Meath Environmental Platform

Observations for Trim Market St

Time AQI Temp °C Hum % Pres Pa CO μg/m³ H₂S μg/m³ NO μg/m³ NO₂ μg/m³ O₃ μg/m³ SO₂ μg/m³ PM1 μg/m³ PM2.5 μg/m³ PM10 μg/m³
Sunday 16 August 2026
12:04 2 23 48 57,135 0 0 1.22 7.65 66 0 0 2.02 2.22
12:03 2 23 48 57,235 0 0 1.22 7.72 67.51 0 0.71 3.06 3.36
12:02 2 23 48 57,293 0 0 1.22 6.53 65.35 0 0 2.02 2.22
12:01 2 23 48 57,331 0 0 1.22 6.37 64.8 0 0 2.54 2.98
12:00 2 23.1 48 57,320 0 0 1.21 6.03 64.78 0 0 2.03 2.23
11:59 2 23.1 48 57,186 0 0 1.21 8.05 64.64 0 0 2.54 2.8
11:58 2 23.1 48 57,305 0 0 1.21 7.23 66.14 0 0 3.06 3.37
11:57 2 23.2 48 57,537 0 0 1.2 6.65 65.14 0 0.71 3.07 3.38
11:56 2 23.2 48 57,795 0 0 1.2 7.45 64.99 0 0 2.55 2.97
11:55 2 23.3 48 58,102 0 0 1.19 6.33 64.28 0 0.71 2.55 2.81
11:54 2 23.3 48 58,242 0.05 0 1.19 7.59 64.76 0 0 2.56 3.73
11:53 2 23.4 48 58,564 0.1 0 1.19 8.63 68.64 0 0 2.56 2.97
11:51 2 23.5 47 58,982 0 0 1.23 8.75 68.4 0 0 2.05 2.25
11:49 2 23.6 47 59,330 0 0 1.52 8.15 64.58 0 0 2.56 2.96
11:44 2 23.6 48 58,023 0 0 1.14 9.33 69.49 0 1.43 3.56 3.75
11:42 2 23.5 48 57,646 0 0 1.14 7.95 64.27 0 0 3.04 3.34
11:36 2 23.1 49 55,846 0 0 1.19 9.82 71.5 0 0.71 3 3.03
11:35 2 23 49 55,814 0 0 1.18 9.24 71.6 0 0.71 3.51 5.28
11:34 2 23 49 55,643 0 0 1.19 8.95 70.56 0 0.71 3 3.78
11:33 2 22.9 49 55,658 0 0 1.2 7.94 65.44 0 0.71 2.48 3.03